Location: State Line Observation Field
(36.5320°N, 77.5360°W)
Time: 08:41:25
(UTC-04:00)

Envisat - Pass Details

Date: 10 March 2021
Orbit: 764 x 766 km, 98.1° (Epoch: 13 April)

Event Time Altitude Azimuth Distance (km) Brightness Sun altitude
Rises 05:40:57 0° 14° (NNE) 3,237 6.5 -10.3°
Reaches altitude 10° 05:43:16 10° 16° (NNE) 2,307 5.7 -9.8°
Maximum altitude 05:48:22 77° 102° (ESE) 786 3.2 -8.8°
Drops below altitude 10° 05:53:25 10° 189° (S) 2,291 5.4 -7.7°
Sets 05:55:42 0° 190° (S) 3,212 6.1 -7.3°
